{"data":{"norad_id":67179,"intl_designator":"2025-303S","name":"STARLINK-35793","alt_names":[],"object_type":"PAYLOAD","status":"ACTIVE","operator":null,"country":"US","launch_date":"2025-12-17","launch_site_code":"AFETR","launch_vehicle":null,"mission":null,"orbit_class":"UNKNOWN","rcs_meters":null,"size_class":null,"mass_kg":null,"dimensions":null,"purposes":["comms"],"wikipedia_slug":null,"has_3d_model":false,"image_url":null,"decayed_at":null,"tle_current":{"epoch":"2026-05-24T23:32:12.747840Z","epoch_age_seconds":80003,"freshness":"FRESH","line1":"1 67179U 25303S   26144.98070310  .00028436  00000+0  10388-2 0  9992","line2":"2 67179  42.9977 239.8000 0000558 289.0728  71.0063 15.27583778 24406","mean_motion":15.27583778,"eccentricity":5.58e-5,"inclination_deg":42.9977,"raan_deg":239.8,"arg_perigee_deg":289.0728,"mean_anomaly_deg":71.0063,"bstar":0.0010388,"rev_number":2440,"period_min":94.266515574375,"perigee_km":482.65492981893,"apogee_km":483.42063692475,"semimajor_km":6861.1747833718,"source":"CELESTRAK","updated_at":"2026-05-25T13:38:21.483131Z"}}}